Regional Weather Roundup
Issued by NWS

Home | Current Version | Previous Version | Graphics & Text | Print | Product List | Glossary On
Versions: 1 2 3 4 5 6 7 8 9 10 11 12 13 14 15 16 17 18 19 20 21 22 23 24 25 26 27 28 29 30 31 32 33 34 35 36 37 38 39 40 41 42 43 44 45 46 47 48 49 50
000
ASUS43 KLMK 271702
RWRKY
KENTUCKY REGIONAL WEATHER ROUNDUP
NATIONAL WEATHER SERVICE LOUISVILLE KY
100 PM EDT WED AUG 27 2014

NOTE "FAIR" INDICATES FEW OR NO CLOUDS BELOW 12,000 FEET
WITH NO SIGNIFICANT WEATHER AND/OR OBSTRUCTIONS TO VISIBILITY.

KYZ001>023-026-027-061>063-070>075-271800-
WESTERN AND SOUTH CENTRAL KENTUCKY

CITY           SKY/WX    TMP DP  RH WIND       PRES   REMARKS
PADUCAH        MOSUNNY   92  74  55 NW3       30.09F HX 101
HENDERSON      MOSUNNY   88  75  66 CALM      30.09F HX  97
OWENSBORO      MOSUNNY   89  74  61 NW3       30.10F HX  97
HOPKINSVILLE   MOSUNNY   89  73  60 NE8       30.10F HX  96
BOWLING GREEN  MOSUNNY   87  71  58 E5        30.11F HX  93
GLASGOW        CLOUDY    85  68  56 CALM      30.12F
$$

KYZ024-025-028>034-038-045-046-053-271800-
NORTH CENTRAL KENTUCKY

CITY           SKY/WX    TMP DP  RH WIND       PRES   REMARKS
LOUISVILLE/SDF MOSUNNY   91  73  55 NE6       30.09F HX  99
LOUISVILLE/LOU SUNNY     89  74  60 VRB5      30.10F HX  98
FORT KNOX      SUNNY     87  73  63 N3        30.11S HX  94
$$

KYZ035>037-039>044-047>052-055>060-089>105-271800-
NORTHEAST KENTUCKY

CITY           SKY/WX    TMP DP  RH WIND       PRES   REMARKS
LEXINGTON      SUNNY     88  70  55 N3        30.13F HX  93
COVINGTON      MOSUNNY   87  70  56 CALM      30.09F HX  92
FRANKFORT      SUNNY     87  71  58 CALM      30.11F HX  93
$$

KYZ054-064>069-076>088-106>120-271800-
SOUTHEAST KENTUCKY

CITY           SKY/WX    TMP DP  RH WIND       PRES   REMARKS
JACKSON        SUNNY     81  65  58 VRB5      30.15F
LONDON         SUNNY     84  65  52 VRB7      30.14F
SOMERSET       SUNNY     82  63  51 E5        30.14F
MIDDLESBORO    SUNNY     81  66  59 CALM      30.14S
MONTICELLO     SUNNY     86  69  56 N7        30.14F HX  90
$$




USA.gov is the U.S. government's official web portal to all federal, state and local government web resources and services.